$Date,$Time,DM0201B,DM0203B,DM0205B,DM0207B,DM0209B
08/10/99,00:00:01,0,0,0,0,0
08/10/99,00:05:01,25,357,-19,0,958
08/10/99,00:10:01,96,12,-19,0,958
08/10/99,00:15:01,51,332,-19,0,958
08/10/99,00:20:01,48,266,-19,0,958
08/10/99,00:25:01,69,312,-19,0,958
08/10/99,00:30:01,93,323,-19,0,958
08/10/99,00:35:01,119,320,-19,0,958
08/10/99,00:40:01,60,317,-19,0,958
08/10/99,00:45:01,99,332,-19,0,958
08/10/99,00:50:01,84,325,-19,0,958
08/10/99,00:55:01,133,319,-19,0,958
08/10/99,01:00:01,119,315,-19,0,958
08/10/99,01:05:01,84,295,-19,0,958
08/10/99,01:10:01,119,315,-19,0,958
08/10/99,01:15:01,92,297,-19,0,958
08/10/99,01:20:01,78,322,-19,0,958
08/10/99,01:25:01,112,322,-19,0,958
08/10/99,01:30:01,125,310,-19,0,958
08/10/99,01:35:01,123,323,-19,0,958
08/10/99,01:40:01,118,323,-19,0,958
08/10/99,01:45:01,115,322,-19,0,958
08/10/99,01:50:01,95,322,-19,0,958
08/10/99,01:55:01,99,324,-19,0,958
08/10/99,02:00:01,83,323,-19,0,958
08/10/99,02:05:01,57,324,-19,0,958
08/10/99,02:10:01,72,336,-19,0,958
08/10/99,02:15:01,57,324,-19,0,958
08/10/99,02:20:01,68,311,-19,0,958
08/10/99,02:25:01,46,301,-19,0,958
08/10/99,02:30:01,47,274,-19,0,958
08/10/99,02:35:01,46,253,-19,0,958
08/10/99,02:40:01,57,266,-19,0,958
08/10/99,02:45:01,24,243,-19,0,958
08/10/99,02:50:01,21,246,-19,0,958
08/10/99,02:55:01,6,243,-19,0,958
08/10/99,03:00:01,32,202,-19,0,958
08/10/99,03:05:01,21,262,-19,0,958
08/10/99,03:10:01,31,210,-19,0,958
08/10/99,03:15:01,31,220,-19,0,958
08/10/99,03:20:01,45,273,-19,0,958
08/10/99,03:25:01,57,243,-17,0,958
08/10/99,03:30:01,87,179,-17,0,958
08/10/99,03:35:01,42,252,-17,0,958
08/10/99,03:40:01,99,248,-17,0,958
08/10/99,03:45:01,62,230,-17,0,958
08/10/99,03:50:01,135,181,-17,0,958
08/10/99,03:55:01,132,195,-17,0,960
08/10/99,04:00:01,82,189,-17,0,960
08/10/99,04:05:01,101,176,-17,0,960
08/10/99,04:10:01,62,176,-17,0,960
08/10/99,04:15:01,38,162,-17,0,960
08/10/99,04:20:01,62,132,-17,0,960
08/10/99,04:25:01,78,155,-17,0,960
08/10/99,04:30:01,82,145,-17,0,960
08/10/99,04:35:01,125,137,-17,0,960
08/10/99,04:40:01,99,197,-17,0,960
08/10/99,04:45:01,33,132,-17,0,960
08/10/99,04:50:01,92,123,-17,0,960
08/10/99,04:55:01,59,122,-17,0,960
08/10/99,05:00:01,71,132,-17,0,960
08/10/99,05:05:01,38,145,-17,0,960
08/10/99,05:10:01,10,130,-17,0,960
08/10/99,05:15:01,5,169,-17,0,960
08/10/99,05:20:01,68,156,-17,0,960
08/10/99,05:25:01,51,198,-17,0,960
08/10/99,05:30:01,103,173,-17,0,960
08/10/99,05:35:01,86,185,-17,0,960
08/10/99,05:40:01,70,212,-17,0,960
08/10/99,05:45:01,77,221,-17,0,960
08/10/99,05:50:01,74,243,-17,0,960
08/10/99,05:55:01,86,268,-17,0,960
08/10/99,06:00:01,60,250,-17,0,960
08/10/99,06:05:01,91,236,-17,0,960
08/10/99,06:10:01,56,253,-17,0,960
08/10/99,06:15:01,42,258,-17,0,960
08/10/99,06:20:01,57,244,-17,0,960
08/10/99,06:25:01,80,232,-17,0,960
08/10/99,06:30:01,97,220,-17,0,960
08/10/99,06:35:01,111,210,-17,0,960
08/10/99,06:40:01,95,239,-17,0,960
08/10/99,06:45:01,76,242,-17,0,960
08/10/99,06:50:01,50,208,-17,0,960
08/10/99,06:55:01,64,199,-17,0,960
08/10/99,07:00:01,121,231,-17,0,960
08/10/99,07:05:01,84,229,-17,0,960
08/10/99,07:10:01,106,211,-17,0,960
08/10/99,07:15:01,117,189,-17,0,960
08/10/99,07:20:01,87,190,-17,0,960
08/10/99,07:25:01,133,191,-17,0,960
08/10/99,07:30:01,201,191,-17,0,960
08/10/99,07:35:01,171,195,-17,0,960
08/10/99,07:40:01,209,185,-17,0,960
08/10/99,07:45:01,171,201,-17,0,960
08/10/99,07:50:01,208,182,-17,0,960
08/10/99,07:55:01,316,182,-17,0,960
08/10/99,08:00:01,339,171,-17,0,960
08/10/99,08:05:01,306,171,-17,0,960
08/10/99,08:10:01,295,160,-17,0,960
08/10/99,08:15:01,288,174,-17,0,960
08/10/99,08:20:01,206,171,-17,0,960
08/10/99,08:25:01,262,185,-17,0,960
08/10/99,08:30:01,310,175,-17,0,960
08/10/99,08:35:01,299,181,-17,0,960
08/10/99,08:40:01,277,181,-17,0,960
08/10/99,08:45:01,293,182,-17,0,960
08/10/99,08:50:01,297,172,-17,0,962
08/10/99,08:55:01,257,172,-17,0,962
08/10/99,09:00:01,277,181,-17,0,962
08/10/99,09:05:01,280,171,-17,0,962
08/10/99,09:10:01,345,171,-17,0,962
08/10/99,09:15:01,277,182,-17,0,962
08/10/99,09:20:01,380,181,-17,0,962
08/10/99,09:25:01,308,170,-17,0,962
08/10/99,09:30:01,403,170,-17,0,962
08/10/99,09:35:01,320,170,-17,0,962
08/10/99,09:40:01,380,170,-17,0,962
08/10/99,09:45:01,371,165,-17,0,962
08/10/99,09:50:01,480,165,-17,0,962
08/10/99,09:55:01,446,165,-17,0,962
08/10/99,10:00:01,452,165,-17,0,962
08/10/99,10:05:01,456,165,-17,0,962
08/10/99,10:10:01,388,165,-19,0,962
08/10/99,10:15:01,428,165,-19,0,962
08/10/99,10:20:01,504,165,-19,0,962
08/10/99,10:25:01,476,165,-19,0,962
08/10/99,10:30:01,494,165,-19,0,962
08/10/99,10:35:01,453,165,-19,0,962
08/10/99,10:40:01,496,165,-19,0,962
08/10/99,10:45:01,487,165,-19,0,962
08/10/99,10:50:01,432,165,-19,0,962
08/10/99,10:55:01,478,165,-19,0,962
08/10/99,11:00:01,376,165,-19,0,962
08/10/99,11:05:01,400,165,-19,0,962
08/10/99,11:10:01,412,165,-19,0,962
08/10/99,11:15:01,392,165,-19,0,962
08/10/99,11:20:01,336,157,-19,0,962
08/10/99,11:25:01,342,157,-19,0,962
08/10/99,11:30:01,389,166,-19,0,962
08/10/99,11:35:01,372,167,-19,0,962
08/10/99,11:40:01,392,166,-19,0,962
08/10/99,11:45:01,411,161,-19,0,962
08/10/99,11:50:01,367,171,-19,0,962
08/10/99,11:55:01,445,171,-19,0,962
08/10/99,12:00:01,407,182,-19,0,962
08/10/99,12:05:01,410,171,-19,0,962
08/10/99,12:10:01,417,171,-19,0,962
08/10/99,12:15:01,471,171,-19,0,962
08/10/99,12:20:01,496,171,-19,0,962
08/10/99,12:25:01,476,161,-19,0,962
08/10/99,12:30:01,466,161,-17,0,962
08/10/99,12:35:01,444,162,-17,0,962
08/10/99,12:40:01,476,172,-17,0,962
08/10/99,12:45:01,400,172,-17,0,962
08/10/99,12:50:01,495,172,-17,0,962
08/10/99,12:55:01,479,172,-17,0,964
08/10/99,13:00:01,457,172,-17,0,964
08/10/99,13:05:01,395,172,-17,0,964
08/10/99,13:10:01,373,172,-17,0,964
08/10/99,13:15:01,415,172,-17,0,964
08/10/99,13:20:01,447,172,-17,0,964
08/10/99,13:25:01,539,172,-17,0,964
08/10/99,13:30:01,567,172,-17,0,964
08/10/99,13:35:01,533,172,-17,0,964
08/10/99,13:40:01,468,172,-17,0,964
08/10/99,13:45:01,468,172,-17,0,964
08/10/99,13:50:01,422,172,-17,0,964
08/10/99,13:55:01,376,183,-17,0,964
08/10/99,14:00:01,424,174,-17,0,964
08/10/99,14:05:01,412,173,-17,0,964
08/10/99,14:10:01,426,170,-17,0,964
08/10/99,14:15:01,358,181,-17,0,964
08/10/99,14:20:01,433,165,-17,0,964
08/10/99,14:25:01,473,178,-17,0,964
08/10/99,14:30:01,507,178,-17,0,964
08/10/99,14:35:01,547,177,-17,0,964
08/10/99,14:40:01,517,167,-17,0,964
08/10/99,14:45:01,509,178,-17,0,964
08/10/99,14:50:01,477,168,-17,0,964
08/10/99,14:55:01,507,170,-17,0,964
08/10/99,15:00:01,460,182,-17,0,964
08/10/99,15:05:01,415,182,-17,0,964
08/10/99,15:10:01,478,171,-17,0,966
08/10/99,15:15:01,490,171,-17,0,966
08/10/99,15:20:01,453,161,-17,0,966
08/10/99,15:25:01,347,173,-17,0,966
08/10/99,15:30:01,296,163,-17,0,966
08/10/99,15:35:01,350,163,-17,0,966
08/10/99,15:40:01,306,163,-17,0,966
08/10/99,15:45:01,309,156,-17,0,966
08/10/99,15:50:01,271,155,-17,0,966
08/10/99,15:55:01,340,157,-17,0,966
08/10/99,16:00:01,318,169,-17,0,966
08/10/99,16:05:01,394,171,-17,0,966
08/10/99,16:10:01,371,164,-17,0,966
08/10/99,16:15:01,385,167,-17,0,966
08/10/99,16:20:01,458,157,-17,0,966
08/10/99,16:25:01,405,157,-17,0,966
08/10/99,16:30:01,412,157,-17,0,966
08/10/99,16:35:01,493,157,-17,0,966
08/10/99,16:40:01,534,168,-17,0,966
08/10/99,16:45:01,595,168,-17,0,966
08/10/99,16:50:01,634,168,-17,0,966
08/10/99,16:55:01,551,168,-17,0,966
08/10/99,17:00:01,537,168,-19,0,966
08/10/99,17:05:01,544,168,-19,0,966
08/10/99,17:10:01,478,168,-19,0,966
08/10/99,17:15:01,450,168,-19,0,966
08/10/99,17:20:01,389,168,-19,0,966
08/10/99,17:25:01,449,166,-19,0,966
08/10/99,17:30:01,474,166,-19,0,966
08/10/99,17:35:01,444,168,-19,0,966
08/10/99,17:40:01,497,167,-19,0,966
08/10/99,17:45:01,470,167,-19,0,966
08/10/99,17:50:01,494,167,-19,0,966
08/10/99,17:55:01,487,167,-19,0,966
08/10/99,18:00:01,407,167,-19,0,966
08/10/99,18:05:01,429,156,-19,0,966
08/10/99,18:10:01,431,159,-19,0,966
08/10/99,18:15:01,436,159,-19,0,966
08/10/99,18:20:01,430,159,-19,0,966
08/10/99,18:25:01,426,158,-19,0,966
08/10/99,18:30:01,432,158,-19,0,966
08/10/99,18:35:01,383,168,-19,0,966
08/10/99,18:40:01,423,168,-19,0,968
08/10/99,18:45:01,418,168,-19,0,968
08/10/99,18:50:01,347,168,-19,0,968
08/10/99,18:55:01,295,169,-19,0,968
08/10/99,19:00:01,285,181,-19,0,968
08/10/99,19:05:01,339,165,-19,0,968
08/10/99,19:10:01,340,176,-19,0,968
08/10/99,19:15:01,254,176,-19,0,968
08/10/99,19:20:01,275,172,-19,0,968
08/10/99,19:25:01,308,159,-19,0,968
08/10/99,19:30:01,276,170,-19,0,968
08/10/99,19:35:01,228,170,-19,0,968
08/10/99,19:40:01,236,180,-19,0,968
08/10/99,19:45:01,241,180,-19,0,968
08/10/99,19:50:01,238,180,-19,0,968
08/10/99,19:55:01,248,169,-19,0,968
08/10/99,20:00:01,261,184,-19,0,968
08/10/99,20:05:01,150,183,-19,0,968
08/10/99,20:10:01,147,204,-19,0,968
08/10/99,20:15:01,217,179,-19,0,968
08/10/99,20:20:01,257,168,-19,0,968
08/10/99,20:25:01,336,168,-19,0,968
08/10/99,20:30:01,292,180,-19,0,968
08/10/99,20:35:01,338,169,-19,0,968
08/10/99,20:40:01,338,180,-19,0,968
08/10/99,20:45:01,326,180,-19,0,968
08/10/99,20:50:01,275,180,-19,0,968
08/10/99,20:55:01,275,180,-19,0,968
08/10/99,21:00:01,361,180,-19,0,968
08/10/99,21:05:01,330,180,-19,0,968
08/10/99,21:10:01,349,180,-19,0,968
08/10/99,21:15:01,313,170,-19,0,968
08/10/99,21:20:01,265,170,-19,0,968
08/10/99,21:25:01,244,170,-19,0,968
08/10/99,21:30:01,217,181,-19,0,968
08/10/99,21:35:01,177,181,-19,0,968
08/10/99,21:40:01,146,181,-19,0,968
08/10/99,21:45:01,97,178,-19,0,968
08/10/99,21:50:01,91,174,-21,0,968
08/10/99,21:55:01,79,181,-21,0,968
08/10/99,22:00:01,120,184,-21,0,968
08/10/99,22:05:01,155,172,-21,0,968
08/10/99,22:10:01,39,147,-21,0,970
08/10/99,22:15:01,72,133,-21,0,970
08/10/99,22:20:01,41,125,-21,0,970
08/10/99,22:25:01,70,154,-21,0,970
08/10/99,22:30:01,72,135,-21,0,970
08/10/99,22:35:01,39,83,-21,0,970
08/10/99,22:40:01,18,89,-21,0,970
08/10/99,22:45:01,23,11,-21,0,970
08/10/99,22:50:01,41,21,-23,0,970
08/10/99,22:55:01,99,9,-23,0,970
08/10/99,23:00:01,62,9,-23,0,970
08/10/99,23:05:01,83,21,-23,0,970
08/10/99,23:10:01,120,31,-23,0,970
08/10/99,23:15:01,93,31,-23,0,970
08/10/99,23:20:01,82,33,-23,0,970
08/10/99,23:25:01,78,19,-23,0,970
08/10/99,23:30:01,86,16,-23,0,970
08/10/99,23:35:01,88,16,-23,0,970
08/10/99,23:40:01,73,16,-23,0,970
08/10/99,23:45:01,104,27,-23,0,970
08/10/99,23:50:01,90,27,-23,0,970
08/10/99,23:55:01,109,27,-23,0,970
08/11/99,00:00:01,99,27,-23,0,970
